Regional Weather Roundup
Issued by NWS Charleston, WV

Home | Current Version | Previous Version | Text Only | Print | Product List | Glossary On
Versions: 1 2 3 4 5 6 7 8 9 10 11 12 13 14 15 16 17 18 19 20 21 22 23 24 25 26 27 28 29 30 31 32 33 34 35 36 37 38 39 40 41 42 43 44 45 46 47
000
ASUS41 KRLX 210010
RWRRLX
West Virginia Regional Weather Roundup
National Weather Service Charleston WV
700 PM EST FRI JAN 20 2017

Note: "fair" indicates few or no clouds below 12,000 feet with no
significant weather and/or obstructions to visibility.

WVZ003-210100-
Northern Panhandle of West Virginia

CITY           SKY/WX    TMP DP  RH WIND       PRES   REMARKS
WHEELING       CLOUDY    55  50  83 SW8       29.78R
$$

WVZ009-210100-
Northwest West Virginia

CITY           SKY/WX    TMP DP  RH WIND       PRES   REMARKS
PARKERSBURG    CLEAR     55  50  83 S3        29.80R
$$

WVZ006-210100-
Western West Virginia

CITY           SKY/WX    TMP DP  RH WIND       PRES   REMARKS
HUNTINGTON     CLEAR     61  48  62 CALM      29.78R
$$

WVZ015-210100-
West Central West Virginia

CITY           SKY/WX    TMP DP  RH WIND       PRES   REMARKS
CHARLESTON     PTCLDY    58  50  75 CALM      29.79R
$$

WVZ022-031-210100-
North Central West Virginia

CITY           SKY/WX    TMP DP  RH WIND       PRES   REMARKS
CLARKSBURG     CLEAR     56  49  77 SE3       29.80R
MORGANTOWN     CLOUDY    53  48  83 S3        29.81R
$$

WVZ025-035-042-045-210100-
Southern West Virginia

CITY           SKY/WX    TMP DP  RH WIND       PRES   REMARKS
BECKLEY        CLOUDY    51  44  77 S3        29.84R
LOGAN          MOCLDY    61  48  63 CALM      29.80R
BLUEFIELD      CLEAR     52  44  74 SW8       29.86R
LEWISBURG      CLOUDY    51  47  88 CALM      29.84S
$$

WVZ047-210100-
Northern Mountains of West Virginia

CITY           SKY/WX    TMP DP  RH WIND       PRES   REMARKS
ELKINS         CLOUDY    45  41  86 CALM      29.83R
$$

WVZ052-210100-
Eastern Panhandle of West Virginia

CITY           SKY/WX    TMP DP  RH WIND       PRES   REMARKS
MARTINSBURG    MOCLDY    42  40  92 N3        29.87R FOG
PETERSBURG     MOCLDY    46  43  88 CALM      29.87R
$$




USA.gov is the U.S. government's official web portal to all federal, state and local government web resources and services.